Date String (YYYY-MM-DD hh:mm:ss) UTC,Instrument flags,absolute air pressure of the measurement (hPa),sample flow rate (lpm),inlet stack bypass flow (lpm),air temperature of the measurement (°C),ambient temperature measured by the external sensor (°C),aerosol sample conditioner tube jacket temperature (°C),OPC LED temperature (°C),internal box temperature (°C),relative humidity of the measurement (%),span deviation,mass concentration of particles derived from Lorenz-Mie calculation of OPC scattering (μg/m³),mass concentration of particles derived from Lorenz-Mie calculation of OPC scattering (μg/m³),mass concentration of particles derived from Lorenz-Mie calculation of OPC scattering (μg/m³)
DateTimeUTC,F1_M11,P_M11,Q1_M11,Q2_M11,T1_M11,T2_M11,T3_M11,T4_M11,T5_M11,U1_M11,ZSPAN_M11,X0_M11,X2_M11,X1_M11
2024-04-09 08:00:00,SystemResetWarning,0830.0,5.01,000.00,022.4,021.7,000.0,031.0,024.2,014.5,0000.0,0008.46,0002.11,0001.37
2024-04-09 08:01:00,SystemResetWarning,0830.0,5.01,000.00,022.4,021.7,000.0,031.0,024.2,014.7,0000.0,0008.19,0002.13,0001.37
2024-04-09 08:02:00,SystemResetWarning,0830.0,4.99,000.00,022.4,021.6,000.0,031.0,024.2,014.7,0000.0,0008.12,0002.12,0001.36
2024-04-09 08:03:00,SystemResetWarning,0830.0,4.99,000.00,022.4,021.6,000.0,031.0,024.2,014.8,0000.0,0008.59,0002.23,0001.37
2024-04-09 08:04:00,SystemResetWarning,0830.0,5.00,000.00,022.4,021.6,000.0,031.0,024.2,014.8,0000.0,0008.05,0002.27,0001.37
2024-04-09 08:05:00,SystemResetWarning,0830.0,5.01,000.00,022.3,021.6,000.0,031.0,024.2,014.9,0000.0,0008.63,0002.32,0001.36
2024-04-09 08:06:00,SystemResetWarning,0830.0,5.01,000.00,022.3,021.6,000.0,030.9,024.1,015.0,0000.0,0008.46,0002.29,0001.34
2024-04-09 08:07:00,SystemResetWarning,0830.0,5.00,000.00,022.3,021.6,000.0,030.9,024.1,015.1,0000.0,0008.40,0002.21,0001.31
2024-04-09 08:08:00,SystemResetWarning,0830.0,4.99,000.00,022.3,021.6,000.0,030.9,024.1,015.0,0000.0,0009.18,0002.16,0001.30
2024-04-09 08:09:00,SystemResetWarning,0830.0,4.99,000.00,022.3,021.6,000.0,030.9,024.1,014.8,0000.0,0009.40,0002.25,0001.29
2024-04-09 08:10:00,SystemResetWarning,0830.0,5.01,000.00,022.3,021.5,000.0,030.9,024.1,014.6,0000.0,0009.23,0002.28,0001.29
2024-04-09 08:11:00,SystemResetWarning,0830.0,5.01,000.00,022.3,021.5,000.0,030.9,024.1,014.6,0000.0,0008.66,0002.33,0001.31
2024-04-09 08:12:00,SystemResetWarning,0830.0,5.00,000.00,022.3,021.5,000.0,030.9,024.1,014.4,0000.0,0008.66,0002.31,0001.30
2024-04-09 08:13:00,SystemResetWarning,0829.9,4.99,000.00,022.2,021.5,000.0,030.9,024.1,014.3,0000.0,0008.73,0002.36,0001.32
2024-04-09 08:14:00,SystemResetWarning,0829.9,4.99,000.00,022.2,021.5,000.0,030.8,024.0,014.3,0000.0,0008.66,0002.35,0001.34
2024-04-09 08:15:00,SystemResetWarning,0829.9,4.99,000.00,022.2,021.5,000.0,030.8,024.0,014.3,0000.0,0008.76,0002.41,0001.35
2024-04-09 08:16:00,SystemResetWarning,0829.9,5.01,000.00,022.2,021.5,000.0,030.8,024.0,014.4,0000.0,0009.13,0002.47,0001.37
2024-04-09 08:17:00,SystemResetWarning,0829.9,5.01,000.00,022.2,021.5,000.0,030.8,024.0,014.4,0000.0,0010.12,0002.48,0001.37
2024-04-09 08:18:00,SystemResetWarning,0829.8,5.00,000.00,022.2,021.5,000.0,030.8,024.0,014.4,0000.0,0010.36,0002.51,0001.40
2024-04-09 08:19:00,SystemResetWarning,0829.8,4.99,000.00,022.2,021.5,000.0,030.8,023.9,014.6,0000.0,0009.64,0002.52,0001.42
2024-04-09 08:20:00,SystemResetWarning,0829.8,5.00,000.00,022.2,021.5,000.0,030.8,024.0,014.6,0000.0,0009.15,0002.43,0001.41
2024-04-09 08:21:00,SystemResetWarning,0829.8,5.01,000.00,022.2,021.4,000.0,030.8,023.9,014.7,0000.0,0009.06,0002.40,0001.41
2024-04-09 08:22:00,SystemResetWarning,0829.8,5.01,000.00,022.1,021.4,000.0,030.7,023.9,014.7,0000.0,0009.11,0002.37,0001.41
2024-04-09 08:23:00,SystemResetWarning,0829.7,5.00,000.00,022.1,021.4,000.0,030.7,023.9,014.7,0000.0,0009.92,0002.38,0001.41
2024-04-09 08:24:00,SystemResetWarning,0829.7,4.99,000.00,022.1,021.4,000.0,030.7,023.9,014.6,0000.0,0010.16,0002.38,0001.40
2024-04-09 08:25:00,SystemResetWarning,0829.7,5.00,000.00,022.1,021.4,000.0,030.7,023.9,014.6,0000.0,0010.35,0002.38,0001.37
2024-04-09 08:26:00,SystemResetWarning,0829.7,5.00,000.00,022.1,021.4,000.0,030.7,023.9,014.3,0000.0,0010.41,0002.38,0001.36
2024-04-09 08:27:00,SystemResetWarning,0829.7,5.00,000.00,022.1,021.4,000.0,030.7,023.9,014.1,0000.0,0011.93,0002.38,0001.37
2024-04-09 08:28:00,SystemResetWarning,0829.7,5.01,000.00,022.1,021.3,000.0,030.7,023.8,014.2,0000.0,0010.84,0002.37,0001.39
2024-04-09 08:29:00,SystemResetWarning,0829.7,5.00,000.00,022.1,021.3,000.0,030.7,023.9,014.3,0000.0,0010.44,0002.43,0001.40
2024-04-09 08:30:00,SystemResetWarning,0829.7,5.00,000.00,022.0,021.3,000.0,030.6,023.8,014.5,0000.0,0010.40,0002.46,0001.42
2024-04-09 08:31:00,SystemResetWarning,0829.7,5.00,000.00,022.0,021.3,000.0,030.6,023.8,014.4,0000.0,0010.98,0002.54,0001.44
2024-04-09 08:32:00,SystemResetWarning,0829.7,5.00,000.00,022.0,021.3,000.0,030.6,023.8,014.5,0000.0,0011.25,0002.59,0001.46
2024-04-09 08:33:00,SystemResetWarning,0829.7,5.00,000.00,022.0,021.3,000.0,030.6,023.8,014.7,0000.0,0011.43,0002.55,0001.47
2024-04-09 08:34:00,SystemResetWarning,0829.7,4.99,000.00,022.0,021.3,000.0,030.6,023.8,014.6,0000.0,0011.64,0002.60,0001.46
2024-04-09 08:35:00,SystemResetWarning,0829.7,5.00,000.00,022.0,021.3,000.0,030.6,023.8,014.5,0000.0,0011.56,0002.64,0001.48
2024-04-09 08:36:00,SystemResetWarning,0829.7,5.00,000.00,022.0,021.3,000.0,030.6,023.8,014.5,0000.0,0011.88,0002.62,0001.50
2024-04-09 08:37:00,SystemResetWarning,0829.7,5.00,000.00,022.0,021.3,000.0,030.6,023.8,014.4,0000.0,0011.78,0002.62,0001.51
2024-04-09 08:38:00,SystemResetWarning,0829.7,5.01,000.00,022.0,021.2,000.0,030.5,023.7,014.3,0000.0,0010.61,0002.57,0001.50
2024-04-09 08:39:00,SystemResetWarning,0829.7,5.00,000.00,022.0,021.2,000.0,030.5,023.7,014.0,0000.0,0009.96,0002.55,0001.50
2024-04-09 08:40:00,SystemResetWarning,0829.7,4.99,000.00,021.9,021.2,000.0,030.5,023.7,013.8,0000.0,0009.91,0002.52,0001.51
2024-04-09 08:41:00,SystemResetWarning,0829.6,5.00,000.00,021.9,021.2,000.0,030.5,023.7,013.7,0000.0,0009.97,0002.56,0001.54
2024-04-09 08:42:00,SystemResetWarning,0829.6,5.00,000.00,021.9,021.2,000.0,030.5,023.7,013.8,0000.0,0009.44,0002.61,0001.56
2024-04-09 08:43:00,SystemResetWarning,0829.6,5.01,000.00,021.9,021.2,000.0,030.5,023.7,013.8,0000.0,0009.69,0002.63,0001.57
2024-04-09 08:44:00,SystemResetWarning,0829.5,5.01,000.00,021.9,021.2,000.0,030.5,023.6,013.9,0000.0,0009.77,0002.75,0001.60
2024-04-09 08:45:00,SystemResetWarning,0829.5,5.00,000.00,021.9,021.2,000.0,030.5,023.6,013.8,0000.0,0008.98,0002.77,0001.62
2024-04-09 08:46:00,SystemResetWarning,0829.4,5.00,000.00,021.9,021.2,000.0,030.4,023.6,013.9,0000.0,0008.93,0002.77,0001.65
2024-04-09 08:47:00,SystemResetWarning,0829.4,4.99,000.00,021.8,021.1,000.0,030.4,023.6,013.8,0000.0,0008.77,0002.82,0001.68
2024-04-09 08:48:00,SystemResetWarning,0829.4,5.00,000.00,021.8,021.1,000.0,030.4,023.6,013.7,0000.0,0008.54,0002.84,0001.73
2024-04-09 08:49:00,SystemResetWarning,0829.4,5.01,000.00,021.8,021.1,000.0,030.4,023.6,013.6,0000.0,0008.39,0002.87,0001.77
2024-04-09 08:50:00,SystemResetWarning,0829.3,5.01,000.00,021.8,021.1,000.0,030.4,023.5,013.5,0000.0,0008.69,0002.92,0001.81
2024-04-09 08:51:00,SystemResetWarning,0829.3,5.00,000.00,021.8,021.1,000.0,030.4,023.6,013.5,0000.0,0009.38,0003.05,0001.84
2024-04-09 08:52:00,SystemResetWarning,0829.3,5.00,000.00,021.8,021.1,000.0,030.4,023.5,013.5,0000.0,0009.78,0003.10,0001.85
2024-04-09 08:53:00,SystemResetWarning,0829.3,4.99,000.00,021.8,021.1,000.0,030.4,023.5,013.4,0000.0,0010.13,0003.11,0001.88
2024-04-09 08:54:00,SystemResetWarning,0829.3,5.00,000.00,021.8,021.1,000.0,030.3,023.5,013.5,0000.0,0009.72,0003.13,0001.92
2024-04-09 08:55:00,SystemResetWarning,0829.3,5.00,000.00,021.7,021.0,000.0,030.3,023.5,013.5,0000.0,0009.53,0003.13,0001.95
2024-04-09 08:56:00,SystemResetWarning,0829.4,5.00,000.00,021.7,021.0,000.0,030.3,023.5,013.5,0000.0,0009.70,0003.17,0001.98
2024-04-09 08:57:00,SystemResetWarning,0829.3,5.02,000.00,021.7,021.0,000.0,030.3,023.5,013.4,0000.0,0010.19,0003.22,0002.01
2024-04-09 08:58:00,SystemResetWarning,0829.3,5.00,000.00,021.7,021.0,000.0,030.3,023.5,013.4,0000.0,0009.82,0003.25,0002.05
2024-04-09 08:59:00,SystemResetWarning,0829.3,5.01,000.00,021.7,021.0,000.0,030.3,023.4,013.5,0000.0,0009.84,0003.28,0002.06
